Hourly Weather Ruse

Today, 27 September, Sunday

Time Temperature Precipitation Wind Pressure Humidity
00:00 +17°C° 0 mm 2 mps 745 mmHg 79%
01:00 +17°C° 0 mm 2 mps 745 mmHg 78%
02:00 +16°C° 0 mm 2 mps 746 mmHg 78%
03:00 +16°C° 0 mm 2 mps 746 mmHg 77%
04:00 +15°C° 0 mm 2 mps 747 mmHg 76%
05:00 +15°C° 0 mm 2 mps 748 mmHg 75%
06:00 +16°C° 0 mm 2 mps 748 mmHg 69%
07:00 +17°C° 0 mm 3 mps 749 mmHg 63%
08:00 +18°C° 0 mm 3 mps 750 mmHg 57%
09:00 +20°C° 0 mm 3 mps 751 mmHg 47%
10:00 +21°C° 0 mm 4 mps 751 mmHg 37%
11:00 +23°C° 0 mm 5 mps 752 mmHg 27%
12:00 +25°C° 0 mm 4 mps 752 mmHg 25%
13:00 +26°C° 0 mm 4 mps 752 mmHg 24%
14:00 +27°C° 0 mm 4 mps 753 mmHg 22%
15:00 +26°C° 0 mm 3 mps 753 mmHg 24%
16:00 +26°C° 0 mm 3 mps 753 mmHg 25%
17:00 +26°C° 0 mm 2 mps 754 mmHg 26%
18:00 +24°C° 0 mm 2 mps 754 mmHg 30%
19:00 +21°C° 0 mm 2 mps 754 mmHg 33%
20:00 +19°C° 0 mm 2 mps 755 mmHg 37%
21:00 +18°C° 0 mm 2 mps 755 mmHg 38%
22:00 +18°C° 0 mm 3 mps 755 mmHg 39%
23:00 +17°C° 0 mm 3 mps 755 mmHg 41%

Tomorrow, 28 September, Monday

Time Temperature Precipitation Wind Pressure Humidity
00:00 +17°C° 0 mm 3 mps 755 mmHg 44%
01:00 +17°C° 0 mm 4 mps 755 mmHg 48%
02:00 +17°C° 0 mm 4 mps 755 mmHg 52%
03:00 +17°C° 0 mm 4 mps 755 mmHg 56%
04:00 +17°C° 0 mm 4 mps 755 mmHg 61%
05:00 +17°C° 0 mm 4 mps 755 mmHg 66%
06:00 +18°C° 0 mm 4 mps 755 mmHg 62%
07:00 +19°C° 0 mm 4 mps 755 mmHg 58%
08:00 +20°C° 0 mm 4 mps 754 mmHg 54%
09:00 +23°C° 0 mm 4 mps 754 mmHg 48%
10:00 +26°C° 0 mm 4 mps 754 mmHg 43%
11:00 +28°C° 0 mm 4 mps 754 mmHg 38%
12:00 +29°C° 0 mm 4 mps 754 mmHg 35%
13:00 +30°C° 0 mm 4 mps 754 mmHg 33%
14:00 +32°C° 0 mm 4 mps 753 mmHg 31%
15:00 +31°C° 0 mm 3 mps 753 mmHg 32%
16:00 +31°C° 0 mm 3 mps 753 mmHg 33%
17:00 +30°C° 0 mm 2 mps 752 mmHg 34%
18:00 +28°C° 0 mm 3 mps 752 mmHg 42%
19:00 +27°C° 0 mm 3 mps 752 mmHg 50%
20:00 +25°C° 0 mm 4 mps 753 mmHg 58%
21:00 +24°C° 0 mm 3 mps 752 mmHg 59%
22:00 +23°C° 0 mm 2 mps 752 mmHg 60%
23:00 +21°C° 0 mm 2 mps 752 mmHg 61%

Day after tomorrow, 29 September, Tuesday

Time Temperature Precipitation Wind Pressure Humidity
00:00 +20°C° 0 mm 2 mps 752 mmHg 60%
01:00 +20°C° 0 mm 2 mps 752 mmHg 60%
02:00 +19°C° 0 mm 3 mps 752 mmHg 59%
03:00 +19°C° 0 mm 3 mps 752 mmHg 63%
04:00 +19°C° 0 mm 2 mps 752 mmHg 67%
05:00 +18°C° 0 mm 2 mps 752 mmHg 70%
06:00 +19°C° 0.1 mm 3 mps 752 mmHg 68%
07:00 +19°C° 0.1 mm 3 mps 752 mmHg 66%
08:00 +19°C° 0.1 mm 3 mps 752 mmHg 64%
09:00 +19°C° 0.3 mm 3 mps 752 mmHg 64%
10:00 +19°C° 0.3 mm 2 mps 752 mmHg 64%
11:00 +19°C° 0.3 mm 2 mps 752 mmHg 64%
12:00 +21°C° 0 mm 3 mps 752 mmHg 57%
13:00 +22°C° 0 mm 3 mps 752 mmHg 49%
14:00 +25°C° 0 mm 4 mps 751 mmHg 42%
15:00 +25°C° 0 mm 4 mps 751 mmHg 41%
16:00 +23°C° 0 mm 4 mps 751 mmHg 40%
17:00 +23°C° 0 mm 4 mps 750 mmHg 39%
18:00 +22°C° 0 mm 4 mps 751 mmHg 44%
19:00 +20°C° 0 mm 3 mps 751 mmHg 48%
20:00 +19°C° 0 mm 3 mps 751 mmHg 53%
21:00 +18°C° 0 mm 3 mps 751 mmHg 55%
22:00 +18°C° 0 mm 4 mps 751 mmHg 56%
23:00 +16°C° 0 mm 5 mps 751 mmHg 58%

30 September, Wednesday

Time Temperature Precipitation Wind Pressure Humidity
00:00 +16°C° 0 mm 5 mps 751 mmHg 58%
01:00 +16°C° 0 mm 6 mps 751 mmHg 58%
02:00 +16°C° 0 mm 7 mps 751 mmHg 58%
03:00 +16°C° 0 mm 7 mps 751 mmHg 57%
04:00 +16°C° 0 mm 7 mps 751 mmHg 56%
05:00 +16°C° 0 mm 7 mps 751 mmHg 55%
06:00 +16°C° 0 mm 7 mps 751 mmHg 56%
07:00 +16°C° 0 mm 7 mps 751 mmHg 57%
08:00 +16°C° 0 mm 7 mps 751 mmHg 58%
09:00 +17°C° 0 mm 8 mps 751 mmHg 53%
10:00 +18°C° 0 mm 8 mps 751 mmHg 48%
11:00 +21°C° 0 mm 8 mps 751 mmHg 43%
12:00 +21°C° 0 mm 8 mps 750 mmHg 42%
13:00 +21°C° 0 mm 9 mps 750 mmHg 41%
14:00 +21°C° 0 mm 9 mps 750 mmHg 41%
15:00 +21°C° 0 mm 8 mps 750 mmHg 43%
16:00 +20°C° 0 mm 8 mps 749 mmHg 45%
17:00 +18°C° 0 mm 8 mps 749 mmHg 47%
18:00 +17°C° 0 mm 6 mps 750 mmHg 51%
19:00 +16°C° 0 mm 5 mps 750 mmHg 56%
20:00 +15°C° 0 mm 4 mps 750 mmHg 60%
21:00 +14°C° 0 mm 4 mps 750 mmHg 61%
22:00 +14°C° 0 mm 4 mps 750 mmHg 63%
23:00 +14°C° 0 mm 3 mps 750 mmHg 64%

1 October, Thursday

Time Temperature Precipitation Wind Pressure Humidity
00:00 +14°C° 0 mm 3 mps 750 mmHg 63%
01:00 +14°C° 0 mm 3 mps 749 mmHg 63%
02:00 +16°C° 0 mm 3 mps 749 mmHg 62%
03:00 +16°C° 0.1 mm 3 mps 749 mmHg 65%
04:00 +14°C° 0.1 mm 4 mps 749 mmHg 68%
05:00 +14°C° 0.1 mm 4 mps 749 mmHg 71%
06:00 +14°C° 0.1 mm 4 mps 749 mmHg 70%
07:00 +15°C° 0.1 mm 4 mps 749 mmHg 70%
08:00 +15°C° 0.1 mm 4 mps 749 mmHg 69%
09:00 +17°C° 0.1 mm 4 mps 749 mmHg 64%
10:00 +17°C° 0.1 mm 5 mps 749 mmHg 58%
11:00 +19°C° 0.1 mm 6 mps 749 mmHg 53%
12:00 +19°C° 0.2 mm 6 mps 749 mmHg 53%
13:00 +19°C° 0.2 mm 6 mps 749 mmHg 53%
14:00 +19°C° 0.2 mm 6 mps 749 mmHg 53%
15:00 +17°C° 0.1 mm 6 mps 749 mmHg 59%
16:00 +16°C° 0.1 mm 5 mps 749 mmHg 65%
17:00 +15°C° 0.1 mm 5 mps 749 mmHg 72%
18:00 +15°C° 0 mm 4 mps 749 mmHg 73%
19:00 +16°C° 0 mm 3 mps 749 mmHg 74%
20:00 +16°C° 0 mm 2 mps 749 mmHg 75%
21:00 +16°C° 0 mm 2 mps 750 mmHg 75%
22:00 +16°C° 0 mm 2 mps 750 mmHg 74%
23:00 +16°C° 0 mm 1 mps 750 mmHg 74%

2 October, Friday

Time Temperature Precipitation Wind Pressure Humidity
00:00 +15°C° 0 mm 1 mps 750 mmHg 75%
01:00 +15°C° 0 mm 1 mps 750 mmHg 75%
02:00 +14°C° 0 mm 1 mps 749 mmHg 76%
03:00 +14°C° 0 mm 1 mps 750 mmHg 75%
04:00 +14°C° 0 mm 1 mps 750 mmHg 74%
05:00 +14°C° 0 mm 1 mps 750 mmHg 73%
06:00 +15°C° 0 mm 1 mps 750 mmHg 69%
07:00 +16°C° 0 mm 1 mps 750 mmHg 65%
08:00 +18°C° 0 mm 1 mps 750 mmHg 62%
09:00 +20°C° 0 mm 1 mps 750 mmHg 54%
10:00 +22°C° 0 mm 1 mps 750 mmHg 47%
11:00 +24°C° 0 mm 1 mps 750 mmHg 40%
12:00 +25°C° 0 mm 1 mps 750 mmHg 37%
13:00 +26°C° 0 mm 1 mps 750 mmHg 34%
14:00 +27°C° 0 mm 1 mps 750 mmHg 31%
15:00 +27°C° 0 mm 1 mps 750 mmHg 31%
16:00 +26°C° 0 mm 1 mps 750 mmHg 32%
17:00 +26°C° 0 mm 1 mps 750 mmHg 33%
18:00 +24°C° 0 mm 1 mps 750 mmHg 38%
19:00 +22°C° 0 mm 1 mps 751 mmHg 42%
20:00 +21°C° 0 mm 1 mps 751 mmHg 46%
21:00 +20°C° 0 mm 1 mps 751 mmHg 48%
22:00 +20°C° 0 mm 1 mps 751 mmHg 49%
23:00 +20°C° 0 mm 1 mps 752 mmHg 50%
Show more